Weather Roundup
Issued by NWS Chicago, IL

Home | Current Version | Previous Version | Graphics & Text | Print | Product List | Glossary On
Versions: 1 2 3 4 5 6 7 8 9 10 11 12 13 14 15 16 17 18 19 20 21 22 23 24 25 26 27 28 29 30 31 32 33 34 35 36 37 38 39 40 41 42 43 44 45 46 47 48 49 50
000
NZUS59 KLOT 010610
HRRLOT

CHICAGO AREA WEATHER ROUNDUP
NATIONAL WEATHER SERVICE CHICAGO/ROMEOVILLE IL
1200 AM CST SUN FEB 01 2015

NOTE: "FAIR" INDICATES FEW OR NO CLOUDS BELOW 12,000 FEET WITH NO
SIGNIFICANT WEATHER AND/OR OBSTRUCTIONS TO VISIBILITY.

* THESE STATIONS ARE NOT UNDER NWS QUALITY CONTROL. THEY ALSO MAY NOT
  REPORT WEATHER SUCH AS PRECIPITATION OR FOG.

ILZ005-006-012>014-019>023-010700-
NORTHEAST ILLINOIS

CITY           SKY/WX    TMP DP  RH WIND       PRES   REMARKS
OHARE          LGT SNOW  30  29  96 NE8       30.14F VSB 3/4 WCI  22
6HR MIN TEMP:  30; 6HR MAX TEMP:  35; 6HR PCP:  0.12;

MIDWAY         LGT SNOW  33  31  92 E8        30.14F VSB 1   WCI  26
6HR MIN TEMP:  33; 6HR MAX TEMP:  38; 6HR PCP:  0.12;

AURORA         LGT SNOW  33  30  88 E3        30.13F VSB 3/4
6HR MIN TEMP:  33; 6HR MAX TEMP:  35; 6HR PCP:  0.08;

LANSING*       LGT SNOW  32  32 100 CALM      30.15F VSB 1
JOLIET*        MIX PCPN  32  32  99 CALM      30.14F VSB 1/2
WAUKEGAN       LGT SNOW  30  29  96 NE8       30.15F VSB 3/4 WCI  22
6HR MIN TEMP:  30; 6HR MAX TEMP:  32; 6HR PCP: TRACE;

DUPAGE AIRPORT LGT SNOW  31  29  92 E9        30.12F FOG     WCI  23
6HR MIN TEMP:  31; 6HR MAX TEMP:  34; 6HR PCP:  0.10;

WHEELING       LGT SNOW  31  29  92 NE5       30.17F VSB 1   WCI  26
6HR MIN TEMP:  30; 6HR MAX TEMP:  35; 6HR PCP: TRACE;

KANKAKEE*      LGT SNOW  32  32  99 S5        30.15F WCI  28
MORRIS*        LGT SNOW  32  32 100 SE3       30.13F VSB 3/4
LEWIS AIRPORT* LGT SNOW  32  32 100 CALM      30.13F VSB 3/4
NORTHERLY IS     N/A     31  30  96 NE9         N/A  WCI  23
$$

WIZ051-052-058>065-066-070>072-010700-
SOUTHEAST WISCONSIN

CITY           SKY/WX    TMP DP  RH WIND       PRES   REMARKS
MILWAUKEE      LGT SNOW  29  26  89 E12       30.19S VSB 1   WCI  19
6HR MIN TEMP:  29; 6HR MAX TEMP:  32; 6HR PCP:  0.13;

KENOSHA*       LGT SNOW  30  28  92 NE14      30.16F VSB 1   WCI  19
RACINE*        LGT SNOW  30  27  88 NE13      30.19S VSB 1   WCI  20
BURLINGTON     LGT SNOW  28  27  98 NE8       30.15F WCI  20
WAUKESHA       LGT SNOW  27  27 100 NE8       30.18S VSB 1   WCI  18
WEST BEND      LGT SNOW  27  21  80 NE15G23   30.20S WCI  15
$$

INZ001>003-010>013-019-020-010700-
NORTHWEST INDIANA

CITY           SKY/WX    TMP DP  RH WIND       PRES   REMARKS
GARY*          LGT SNOW  34  31  90 CALM      30.15F
6HR MIN TEMP:  33; 6HR MAX TEMP:  38; 6HR PCP:  0.09;

MICHIGAN CITY* NOT AVBL
RENSSELAER*    NOT AVBL
VALPARAISO     LGT SNOW  32  31  96 SW5       30.15F FOG     WCI  27
$$

LMZ740>746-010700-
SOUTHERN LAKE MICHIGAN

STATION/POSITION TIME  SKY/WX   TEMP WIND        PRES    VSBY
                                AIR  DIR/SP/G
                 (UTC)          (F)  (DEG/KT/KT) (MB)    (MI)
HARRISON CRIB    0600            31   60/  9/ 10   N/A
BURNHAM HARBOR   0600            31   40/  8/  9   N/A
CALUMET HARBOR   0600            31   50/  6/  8   N/A
BURNS HARBOR     NOT AVBL
MICHIGAN CITY    0600            30   30/ 12/ 13   N/A
$$

ABBREVIATIONS USED IN REMARKS
   TC - TEMPERATURE IN CELSIUS
  WCI - WIND CHILL INDEX
   HX - HEAT INDEX
  VSB - VISIBILITY
$$



USA.gov is the U.S. government's official web portal to all federal, state and local government web resources and services.